Regional Weather Roundup
Issued by NWS

Home | Current Version | Previous Version | Graphics & Text | Print | Product List | Glossary On
Versions: 1 2 3 4 5 6 7 8 9 10 11 12 13 14 15 16 17 18 19 20 21 22 23 24 25 26 27 28 29 30 31 32 33 34 35 36 37 38 39 40 41 42 43 44 45 46 47 48 49 50
000
ASUS43 KIND 230309
RWRIN

WEATHER ROUNDUP FOR INDIANA
NATIONAL WEATHER SERVICE INDIANAPOLIS IN
1000 PM EST MON DEC 22 2014

NOTE: "FAIR" INDICATES FEW OR NO CLOUDS BELOW 12,000 FEET WITH NO
SIGNIFICANT WEATHER AND/OR OBSTRUCTIONS TO VISIBILITY.

* - STATION DOES NOT REPORT WEATHER SUCH AS PRECIPITATION OR FOG.

+ - STATION NOT QUALITY CONTROLLED BY THE NATIONAL WEATHER SERVICE.
    USE DATA WITH CAUTION...ESPECIALLY DEWPOINT AND RELATIVE
    HUMIDITY OBSERVATIONS.

INZ001>003-010>013-019-020-230400-
NORTHWEST INDIANA

CITY           SKY/WX    TMP DP  RH WIND       PRES   REMARKS
GARY /AIRPORT/ DRIZZLE   42  37  80 SE13G22   29.66S
KNOX *+        CLOUDY    39  36  87 SE14      29.68F
LA PORTE +     RAIN      39  39 100 E9        29.71S
MICHIGAN CITY+ DRIZZLE   37  36  93 SE10G17   29.70F
MONTICELLO +   RAIN      40  39  95 E8        29.67S
RENSSELAER +   RAIN      41  41 100 E15       29.65F
VALPARAISO     LGT RAIN  39  38  96 E12       29.68F FOG

$$

LMZ046-743>745-230400-
SOUTHERN LAKE MICHIGAN

STATION/POSITION TIME  TEMP WIND        PRES
                       AIR  DIR/SP/G
                 (UTC) (F)  (DEG/KT/KT) (MB)

$$

INZ004-005-014>016-021>024-230400-
NORTH CENTRAL INDIANA

CITY           SKY/WX    TMP DP  RH WIND       PRES   REMARKS
GOSHEN         LGT RAIN  38  35  89 E12       29.73F FOG
LOGANSPORT +   CLOUDY    39  36  87 E10       29.69F
PERU/GRISSOM   LGT RAIN  40  40 100 E13       29.68F
ROCHESTER +    MOCLDY    41  41 100 E12       29.70F FOG
SOUTH BEND     CLOUDY    38  36  92 E17       29.72F FOG
WARSAW +       RAIN      37  36  93 E10G20    29.72F

$$

INZ006>009-017-018-025>027-230400-
NORTHEAST INDIANA

CITY           SKY/WX    TMP DP  RH WIND       PRES   REMARKS
ANGOLA *+      CLOUDY    36  34  93 SE12      29.76F
AUBURN +       DRIZZLE   36  34  93 E8        29.77F
FORT WAYNE     LGT RAIN  38  35  89 E10       29.74F
HUNTINGTON +   CLOUDY    37  36  95 E6        29.72F

$$

INZ028-029-035-036-043>045-051>053-230400-
WEST CENTRAL INDIANA

CITY           SKY/WX    TMP DP  RH WIND       PRES   REMARKS
CRAWFORDSVL +  CLOUDY    41  37  87 SE10      29.64
GREENCASTLE +  CLOUDY    43  37  81 SE5       29.65F
LAFAYETTE      LGT RAIN  42  39  89 E12       29.66F FOG
TERRE HAUTE    CLOUDY    48  43  82 SE14      29.62F

$$

INZ030>032-037>040-046>048-054>057-064-065-230400-
CENTRAL INDIANA

CITY           SKY/WX    TMP DP  RH WIND       PRES   REMARKS
CP ATTERBURY + CLOUDY    46  41  81 MISG      29.68F
COLUMBUS       CLOUDY   N/A N/A N/A SE9       29.69F
FRANKFORT +    LGT RAIN  41  41 100 E9        29.68S
INDIANAPOLIS   CLOUDY    45  40  82 SE13      29.66F
-EAGLE CREEK   CLOUDY    46  40  79 SE7       29.67S
KOKOMO *+      CLOUDY    39  36  87 SE14      29.69F
MARION +       CLOUDY    41  37  84 E9        29.71S
MT COMFORT *+  CLOUDY    46  34  61 SE13      29.69S
SHELBYVILLE    CLOUDY    48  40  73 SE13      29.68F
ZIONSVILLE +   DRIZZLE   44  38  79 SE8       29.68S

$$

INZ033-034-041-042-049-050-058-059-230400-
EAST CENTRAL INDIANA

CITY           SKY/WX    TMP DP  RH WIND       PRES   REMARKS
MUNCIE         CLOUDY    44  37  76 SE13      29.71F

$$

INZ060-061-067>069-081>083-085>088-230400-
SOUTHWEST INDIANA

CITY           SKY/WX    TMP DP  RH WIND       PRES   REMARKS
EVANSVILLE     LGT RAIN  52  49  89 S7        29.65S FOG
HUNTINGBURG *+ CLOUDY    52  46  82 SE6       29.67S
WASHINGTON +   DRIZZLE   48  45  87 SE7       29.64F

$$

INZ062-063-066-070>080-084-089>092-230400-
SOUTH CENTRAL AND SOUTHEAST INDIANA

CITY           SKY/WX    TMP DP  RH WIND       PRES   REMARKS
BLOOMINGTON    CLOUDY    48  43  82 SE8       29.66S

$$




USA.gov is the U.S. government's official web portal to all federal, state and local government web resources and services.